NORTHEAST SUFFOLK  -  Special Weather Statement Special Weather Statement        NORTHERN NASSAU  -  Special Weather Statement Special Weather Statement        NORTHWEST SUFFOLK  -  Special Weather Statement Special Weather Statement        SOUTHEAST SUFFOLK  -  Special Weather Statement Special Weather Statement        SOUTHERN NASSAU  -  Special Weather Statement Special Weather Statement        SOUTHWEST SUFFOLK  -  Special Weather Statement Special Weather Statement      

Active alerts

Northern Nassau
  Details for Northern Nassau Special Weather Statement
Southern Nassau
  Details for Southern Nassau Special Weather Statement
Northwest Suffolk
  Details for Northwest Suffolk Special Weather Statement
Southwest Suffolk
  Details for Southwest Suffolk Special Weather Statement
Northeast Suffolk
  Details for Northeast Suffolk Special Weather Statement
Southeast Suffolk
  Details for Southeast Suffolk Special Weather Statement


WXM80 ListenWXM80 Stop

You find our weather info also at:

UK Metoffice

WeatherCloud

Weather Underground

Northeastern Weather Network

AWEKAS

Citizen Weather Observer Program (CWOP)

HAMweather, WeatherForYou, PWS Weather


Weather Underground History page Text

Daily Summary for May 11, 2017 Units:  English    Metric   Both
« Previous Day
Next Day »
Daily Weekly Monthly Yearly Custom
  High: Low: Average:
Temperature: 63.8 °F 47.1 °F 54.5 °F
Dew Point: 46.0 °F 39.2 °F 42.2 °F
Humidity: 82 % 43 % 64 %
Wind Speed: 5.2 mph 0.0 mph 1.2 mph
Wind Gust: 9.0 mph - -
Wind:- - ESE
Pressure: 30.01 in 29.92 in -
Precipitation: 0.00 in    
Historical Graphs
 
 
Tabular Data for May 11, 2017
Time Temperature Dew Point Pressure Wind Wind Speed Wind Gust Humidity Rainfall Rate (Hourly)
00:02 52.5 °F 40.3 °F 30.01 in NNE 3.6 mph 5.0 mph 63 % 0.00 in
00:07 52.4 °F 40.2 °F 30.01 in NNE 0.5 mph 3.5 mph 63 % 0.00 in
00:12 52.4 °F 40.2 °F 30.01 in NNE 0.5 mph 3.5 mph 63 % 0.00 in
00:17 52.3 °F 40.1 °F 30.01 in Calm     63 % 0.00 in
00:22 52.3 °F 40.1 °F 30.01 in NNE 0.2 mph 2.3 mph 63 % 0.00 in
00:27 52.1 °F 39.9 °F 30.01 in NNE 0.2 mph 1.2 mph 63 % 0.00 in
00:32 52.1 °F 40.3 °F 30.01 in NNE 0.1 mph 1.2 mph 64 % 0.00 in
00:37 52.0 °F 40.6 °F 30.01 in Calm   1.2 mph 65 % 0.00 in
00:42 51.9 °F 40.5 °F 30.01 in Calm     65 % 0.00 in
00:47 51.7 °F 40.7 °F 30.01 in Calm     66 % 0.00 in
00:52 51.6 °F 40.6 °F 30.01 in Calm     66 % 0.00 in
00:57 51.4 °F 40.8 °F 30.01 in Calm     67 % 0.00 in
01:02 51.3 °F 41.1 °F 30.00 in Calm     68 % 0.00 in
01:07 51.1 °F 40.9 °F 30.00 in Calm     68 % 0.00 in
01:12 51.0 °F 40.8 °F 30.00 in Calm     68 % 0.00 in
01:17 50.8 °F 41.0 °F 30.00 in Calm   1.2 mph 69 % 0.00 in
01:22 50.6 °F 40.8 °F 30.00 in North 1.3 mph 3.5 mph 69 % 0.00 in
01:27 50.4 °F 40.6 °F 30.00 in NNW 0.7 mph 2.3 mph 69 % 0.00 in
01:32 50.2 °F 40.8 °F 29.99 in Calm     70 % 0.00 in
01:37 50.0 °F 41.3 °F 30.00 in Calm     72 % 0.00 in
01:42 49.8 °F 41.1 °F 29.99 in Calm     72 % 0.00 in
01:47 49.6 °F 40.9 °F 30.00 in NNW 0.1 mph 1.2 mph 72 % 0.00 in
01:52 49.4 °F 40.7 °F 30.00 in NNW 0.2 mph 1.2 mph 72 % 0.00 in
01:57 49.1 °F 40.8 °F 29.99 in Calm     73 % 0.00 in
02:02 48.9 °F 40.3 °F 29.99 in Calm     72 % 0.00 in
02:07 48.8 °F 40.5 °F 29.99 in Calm     73 % 0.00 in
02:12 48.7 °F 40.8 °F 29.99 in Calm     74 % 0.00 in
02:17 48.6 °F 40.7 °F 29.99 in NNW 0.8 mph 3.5 mph 74 % 0.00 in
02:23 48.5 °F 40.6 °F 29.98 in Calm   1.2 mph 74 % 0.00 in
02:28 48.5 °F 40.6 °F 29.98 in Calm     74 % 0.00 in
02:33 48.5 °F 40.6 °F 29.98 in Calm     74 % 0.00 in
02:38 48.5 °F 40.6 °F 29.97 in Calm     74 % 0.00 in
02:43 48.5 °F 40.2 °F 29.97 in NNW 0.9 mph 2.0 mph 73 % 0.00 in
02:48 48.4 °F 39.8 °F 29.98 in Calm     72 % 0.00 in
02:52 48.5 °F 39.9 °F 29.97 in Calm     72 % 0.00 in
02:57 48.5 °F 39.9 °F 29.98 in Calm     72 % 0.00 in
03:02 48.5 °F 39.9 °F 29.98 in NNW 0.1 mph 1.2 mph 72 % 0.00 in
03:07 48.5 °F 40.2 °F 29.98 in WNW 0.3 mph 3.5 mph 73 % 0.00 in
03:13 48.6 °F 40.3 °F 29.98 in Calm     73 % 0.00 in
03:18 48.6 °F 40.7 °F 29.98 in Calm   2.3 mph 74 % 0.00 in
03:23 48.7 °F 40.4 °F 29.99 in NW 0.3 mph 3.5 mph 73 % 0.00 in
03:28 48.7 °F 40.4 °F 29.98 in NW 0.8 mph 3.5 mph 73 % 0.00 in
03:33 48.8 °F 40.5 °F 29.99 in NW 0.8 mph 2.3 mph 73 % 0.00 in
03:34 48.8 °F 40.5 °F 29.99 in NW 0.5 mph 3.0 mph 73 % 0.00 in
03:39 48.9 °F 40.3 °F 29.99 in NW 0.2 mph 2.3 mph 72 % 0.00 in
03:40 48.9 °F 40.3 °F 29.99 in NW 0.2 mph 2.3 mph 72 % 0.00 in
03:45 48.9 °F 39.9 °F 29.99 in NW 0.1 mph 2.3 mph 71 % 0.00 in
03:50 49.0 °F 39.6 °F 29.99 in Calm     70 % 0.00 in
03:52 49.0 °F 39.6 °F 29.99 in NNW 1.8 mph 3.5 mph 70 % 0.00 in
03:57 48.9 °F 39.2 °F 29.99 in Calm     69 % 0.00 in
04:02 48.9 °F 39.5 °F 29.99 in Calm     70 % 0.00 in
04:07 48.9 °F 39.5 °F 29.99 in NNW 1.6 mph 3.5 mph 70 % 0.00 in
04:12 48.8 °F 40.2 °F 29.99 in NNW 0.8 mph 2.0 mph 72 % 0.00 in
04:17 48.8 °F 40.5 °F 29.98 in Calm     73 % 0.00 in
04:22 48.7 °F 40.1 °F 29.99 in Calm     72 % 0.00 in
04:27 48.6 °F 40.0 °F 29.99 in NNW 1.4 mph 3.5 mph 72 % 0.00 in
04:32 48.5 °F 39.5 °F 29.99 in NNW 0.4 mph 2.3 mph 71 % 0.00 in
04:37 48.4 °F 39.8 °F 29.99 in North 2.2 mph 3.5 mph 72 % 0.00 in
04:42 48.3 °F 40.4 °F 29.99 in North 1.2 mph 3.5 mph 74 % 0.00 in
04:47 48.2 °F 40.6 °F 29.99 in North 1.3 mph 3.5 mph 75 % 0.00 in
04:52 48.2 °F 40.3 °F 29.99 in North 0.9 mph 2.3 mph 74 % 0.00 in
04:57 48.1 °F 40.2 °F 29.99 in North 0.4 mph 2.3 mph 74 % 0.00 in
05:02 48.1 °F 40.5 °F 29.99 in Calm   1.2 mph 75 % 0.00 in
05:07 48.0 °F 40.1 °F 29.99 in North 0.5 mph 2.3 mph 74 % 0.00 in
05:12 48.0 °F 40.1 °F 29.99 in North 0.1 mph 1.2 mph 74 % 0.00 in
05:17 48.0 °F 40.5 °F 29.99 in North 1.4 mph 3.5 mph 75 % 0.00 in
05:22 47.9 °F 40.7 °F 29.99 in North 0.6 mph 1.2 mph 76 % 0.00 in
05:27 47.8 °F 40.6 °F 29.99 in Calm   1.2 mph 76 % 0.00 in
05:32 47.7 °F 40.8 °F 29.99 in North 0.3 mph 2.0 mph 77 % 0.00 in
05:37 47.6 °F 41.1 °F 29.99 in North 1.3 mph 2.3 mph 78 % 0.00 in
05:42 47.5 °F 40.6 °F 29.99 in North 1.3 mph 2.3 mph 77 % 0.00 in
05:47 47.4 °F 40.6 °F 30.00 in North 0.2 mph   77 % 0.00 in
05:52 47.4 °F 40.6 °F 30.00 in North 0.2 mph 1.2 mph 77 % 0.00 in
05:57 47.3 °F 40.5 °F 30.00 in North 1.1 mph 2.0 mph 77 % 0.00 in
06:02 47.2 °F 40.4 °F 30.00 in North 0.4 mph 1.2 mph 77 % 0.00 in
06:07 47.2 °F 40.4 °F 30.00 in Calm     77 % 0.00 in
06:12 47.1 °F 40.3 °F 30.00 in Calm     77 % 0.00 in
06:17 47.1 °F 40.6 °F 30.00 in Calm     78 % 0.00 in
06:22 47.1 °F 41.2 °F 30.00 in Calm     80 % 0.00 in
06:27 47.2 °F 41.7 °F 30.00 in North 0.5 mph 3.5 mph 81 % 0.00 in
06:32 47.3 °F 41.8 °F 30.00 in NNW 0.6 mph 3.5 mph 81 % 0.00 in
06:38 47.5 °F 42.3 °F 30.00 in North 2.2 mph 3.5 mph 82 % 0.00 in
06:43 47.9 °F 42.3 °F 30.00 in NNW 1.7 mph 3.5 mph 81 % 0.00 in
06:48 48.2 °F 42.3 °F 30.00 in NNW 0.4 mph 3.0 mph 80 % 0.00 in
06:53 48.5 °F 42.3 °F 30.00 in NNW 0.3 mph 3.5 mph 79 % 0.00 in
06:58 48.9 °F 42.0 °F 30.00 in North 2.7 mph 4.6 mph 77 % 0.00 in
07:03 49.4 °F 42.1 °F 29.99 in NNW 0.9 mph 2.3 mph 76 % 0.00 in
07:08 49.9 °F 42.6 °F 29.99 in North 0.3 mph 1.2 mph 76 % 0.00 in
07:13 50.3 °F 43.0 °F 29.99 in NNE 3.2 mph 4.0 mph 76 % 0.00 in
07:18 50.9 °F 43.3 °F 29.99 in NE 0.1 mph 1.2 mph 75 % 0.00 in
07:23 51.4 °F 43.4 °F 29.99 in ENE 0.1 mph 1.2 mph 74 % 0.00 in
07:28 51.8 °F 43.8 °F 29.99 in NNE 0.7 mph 3.0 mph 74 % 0.00 in
07:33 52.0 °F 43.3 °F 29.98 in NNE 1.2 mph 3.5 mph 72 % 0.00 in
07:38 52.2 °F 44.2 °F 29.99 in North 0.5 mph 3.5 mph 74 % 0.00 in
07:43 52.3 °F 43.5 °F 29.99 in North 1.7 mph 3.5 mph 72 % 0.00 in
07:48 52.3 °F 43.9 °F 29.98 in NNW 0.9 mph 2.3 mph 73 % 0.00 in
07:53 52.5 °F 44.4 °F 29.98 in NNW 0.8 mph 2.3 mph 74 % 0.00 in
07:58 52.7 °F 45.0 °F 29.99 in NNW 1.3 mph 3.0 mph 75 % 0.00 in
08:03 52.8 °F 44.0 °F 29.98 in NNW 1.3 mph 3.5 mph 72 % 0.00 in
08:08 53.1 °F 44.7 °F 29.98 in North 0.3 mph 1.2 mph 73 % 0.00 in
08:13 53.3 °F 44.9 °F 29.98 in North 2.1 mph 3.5 mph 73 % 0.00 in
08:18 53.6 °F 44.8 °F 29.98 in North 1.3 mph 2.3 mph 72 % 0.00 in
08:23 53.8 °F 44.6 °F 29.98 in NNE 1.5 mph 3.5 mph 71 % 0.00 in
08:28 54.0 °F 44.4 °F 29.99 in NNE 1.9 mph 2.3 mph 70 % 0.00 in
08:34 54.1 °F 44.9 °F 29.99 in North 2.4 mph 3.5 mph 71 % 0.00 in
08:39 54.1 °F 44.5 °F 29.99 in NNE 1.9 mph 4.0 mph 70 % 0.00 in
08:44 54.1 °F 43.8 °F 29.98 in ENE 1.7 mph 3.5 mph 68 % 0.00 in
08:49 53.9 °F 43.2 °F 29.99 in NE 3.0 mph 4.6 mph 67 % 0.00 in
08:54 53.7 °F 43.4 °F 29.99 in NE 2.7 mph 3.5 mph 68 % 0.00 in
08:59 53.6 °F 43.7 °F 29.98 in NNE 1.8 mph 3.5 mph 69 % 0.00 in
09:04 53.9 °F 45.1 °F 29.98 in NNE 1.1 mph 5.0 mph 72 % 0.00 in
09:09 54.3 °F 45.1 °F 29.98 in NE 2.3 mph 3.5 mph 71 % 0.00 in
09:14 54.5 °F 43.8 °F 29.98 in ENE 2.7 mph 5.0 mph 67 % 0.00 in
09:19 54.5 °F 43.8 °F 29.98 in NE 1.8 mph 4.0 mph 67 % 0.00 in
09:24 54.7 °F 43.6 °F 29.98 in ENE 3.0 mph 4.0 mph 66 % 0.00 in
09:29 54.6 °F 43.5 °F 29.98 in ENE 1.7 mph 3.0 mph 66 % 0.00 in
09:34 54.7 °F 44.0 °F 29.98 in ENE 1.2 mph 3.5 mph 67 % 0.00 in
09:39 54.7 °F 43.6 °F 29.98 in NE 2.7 mph 4.6 mph 66 % 0.00 in
09:44 55.0 °F 45.0 °F 29.97 in ENE 2.4 mph 3.5 mph 69 % 0.00 in
09:45 55.0 °F 44.2 °F 29.97 in ENE 1.9 mph 3.5 mph 67 % 0.00 in
09:50 55.2 °F 44.0 °F 29.97 in ENE 3.5 mph 5.8 mph 66 % 0.00 in
09:55 55.1 °F 43.5 °F 29.97 in ENE 1.9 mph 3.5 mph 65 % 0.00 in
10:00 55.4 °F 44.2 °F 29.97 in ENE 3.4 mph 5.0 mph 66 % 0.00 in
10:05 55.6 °F 43.2 °F 29.97 in ENE 4.3 mph 6.9 mph 63 % 0.00 in
10:10 55.8 °F 43.8 °F 29.97 in ENE 2.8 mph 4.0 mph 64 % 0.00 in
10:15 55.9 °F 43.5 °F 29.97 in ENE 3.2 mph 8.1 mph 63 % 0.00 in
10:20 56.2 °F 44.6 °F 29.97 in NE 2.8 mph 6.9 mph 65 % 0.00 in
10:25 56.8 °F 46.0 °F 29.97 in NE 1.3 mph 4.6 mph 67 % 0.00 in
10:30 57.3 °F 44.4 °F 29.97 in ENE 4.6 mph 5.8 mph 62 % 0.00 in
10:35 57.3 °F 44.4 °F 29.98 in NE 1.7 mph 3.5 mph 62 % 0.00 in
10:40 57.5 °F 44.6 °F 29.98 in ENE 3.3 mph 5.0 mph 62 % 0.00 in
10:45 57.7 °F 46.0 °F 29.98 in East 1.1 mph 3.0 mph 65 % 0.00 in
10:50 58.5 °F 44.2 °F 29.98 in NE 4.9 mph 5.8 mph 59 % 0.00 in
10:55 58.9 °F 45.5 °F 29.98 in ENE 0.2 mph 3.5 mph 61 % 0.00 in
10:56 58.9 °F 45.5 °F 29.98 in ENE 1.5 mph 3.0 mph 61 % 0.00 in
11:01 59.1 °F 43.4 °F 29.98 in ENE 3.9 mph 6.9 mph 56 % 0.00 in
11:06 59.3 °F 45.8 °F 29.97 in ENE 2.0 mph 3.5 mph 61 % 0.00 in
11:11 60.0 °F 45.6 °F 29.97 in NE 3.2 mph 6.9 mph 59 % 0.00 in
11:16 60.7 °F 45.4 °F 29.97 in ENE 3.4 mph 4.6 mph 57 % 0.00 in
11:21 61.0 °F 44.7 °F 29.97 in ENE 1.3 mph 5.8 mph 55 % 0.00 in
11:26 61.4 °F 44.1 °F 29.98 in ENE 2.8 mph 8.1 mph 53 % 0.00 in
11:31 61.6 °F 42.8 °F 29.98 in ENE 0.7 mph 1.2 mph 50 % 0.00 in
11:37 61.9 °F 44.6 °F 29.97 in NE 0.5 mph 2.3 mph 53 % 0.00 in
11:42 62.0 °F 44.2 °F 29.97 in NE 2.2 mph 3.5 mph 52 % 0.00 in
11:47 62.2 °F 44.3 °F 29.97 in ENE 1.1 mph 3.5 mph 52 % 0.00 in
11:52 62.2 °F 41.7 °F 29.97 in ENE 0.8 mph 3.0 mph 47 % 0.00 in
11:57 61.9 °F 42.5 °F 29.97 in ENE 3.6 mph 5.8 mph 49 % 0.00 in
12:02 61.6 °F 41.7 °F 29.96 in ENE 3.7 mph 4.0 mph 48 % 0.00 in
12:07 61.3 °F 43.5 °F 29.96 in ENE 0.8 mph 3.0 mph 52 % 0.00 in
12:12 61.0 °F 41.2 °F 29.96 in NE 2.6 mph 4.6 mph 48 % 0.00 in
12:17 60.9 °F 41.6 °F 29.96 in NE 0.7 mph 2.3 mph 49 % 0.00 in
12:22 61.0 °F 41.7 °F 29.95 in NE 3.3 mph 4.6 mph 49 % 0.00 in
12:27 61.4 °F 44.1 °F 29.95 in NE 0.5 mph 2.3 mph 53 % 0.00 in
12:32 62.0 °F 43.7 °F 29.95 in ENE 1.2 mph 2.3 mph 51 % 0.00 in
12:37 62.3 °F 43.9 °F 29.95 in ENE 1.2 mph 2.3 mph 51 % 0.00 in
12:42 62.7 °F 43.8 °F 29.95 in North 3.1 mph 3.5 mph 50 % 0.00 in
12:47 63.2 °F 43.7 °F 29.95 in NE 0.6 mph 3.5 mph 49 % 0.00 in
12:52 62.9 °F 40.6 °F 29.95 in ENE 2.5 mph 3.5 mph 44 % 0.00 in
12:58 62.8 °F 41.1 °F 29.95 in ENE 3.8 mph 4.0 mph 45 % 0.00 in
12:59 62.7 °F 41.0 °F 29.95 in ENE 3.3 mph 4.6 mph 45 % 0.00 in
13:04 62.5 °F 42.0 °F 29.95 in ENE 3.8 mph 6.9 mph 47 % 0.00 in
13:09 62.6 °F 43.2 °F 29.95 in ENE 3.2 mph 4.6 mph 49 % 0.00 in
13:14 62.8 °F 43.3 °F 29.95 in ENE 3.2 mph 4.0 mph 49 % 0.00 in
13:19 62.9 °F 44.5 °F 29.94 in ENE 0.4 mph 3.5 mph 51 % 0.00 in
13:24 63.3 °F 44.9 °F 29.94 in ENE 2.8 mph 7.0 mph 51 % 0.00 in
13:29 63.4 °F 43.4 °F 29.94 in ENE 2.0 mph 4.6 mph 48 % 0.00 in
13:34 63.5 °F 44.0 °F 29.94 in ENE 1.8 mph 4.6 mph 49 % 0.00 in
13:39 63.8 °F 43.2 °F 29.94 in ENE 2.2 mph 3.0 mph 47 % 0.00 in
13:44 63.7 °F 43.1 °F 29.94 in NE 4.4 mph 6.9 mph 47 % 0.00 in
13:49 63.6 °F 43.5 °F 29.94 in ENE 2.1 mph 6.9 mph 48 % 0.00 in
13:54 63.5 °F 41.8 °F 29.94 in NE 3.0 mph 6.9 mph 45 % 0.00 in
13:59 63.5 °F 41.8 °F 29.94 in ENE 5.2 mph 6.9 mph 45 % 0.00 in
14:04 63.4 °F 42.2 °F 29.94 in ENE 3.9 mph 7.0 mph 46 % 0.00 in
14:10 63.5 °F 41.8 °F 29.94 in ENE 3.7 mph 5.0 mph 45 % 0.00 in
14:15 63.5 °F 42.3 °F 29.93 in NE 3.7 mph 5.8 mph 46 % 0.00 in
14:20 63.6 °F 42.4 °F 29.93 in ENE 2.2 mph 4.6 mph 46 % 0.00 in
14:25 63.4 °F 40.5 °F 29.94 in ENE 0.2 mph 1.2 mph 43 % 0.00 in
14:30 63.1 °F 40.2 °F 29.94 in NE 1.5 mph 3.5 mph 43 % 0.00 in
14:35 62.7 °F 41.6 °F 29.93 in ENE 0.3 mph 2.0 mph 46 % 0.00 in
14:40 62.2 °F 40.6 °F 29.93 in NE 2.2 mph 3.5 mph 45 % 0.00 in
14:45 61.8 °F 40.8 °F 29.93 in ENE 1.9 mph 4.6 mph 46 % 0.00 in
14:50 61.9 °F 43.0 °F 29.93 in ENE 1.6 mph 2.3 mph 50 % 0.00 in
14:55 62.0 °F 42.1 °F 29.93 in North 1.6 mph 3.5 mph 48 % 0.00 in
15:00 61.9 °F 41.4 °F 29.93 in NE 1.0 mph 3.5 mph 47 % 0.00 in
15:05 62.0 °F 41.5 °F 29.93 in NNE 2.0 mph 3.5 mph 47 % 0.00 in
15:10 61.9 °F 42.0 °F 29.93 in NNE 2.1 mph 3.5 mph 48 % 0.00 in
15:15 61.9 °F 42.0 °F 29.93 in NNE 1.5 mph 3.0 mph 48 % 0.00 in
15:20 61.7 °F 42.3 °F 29.93 in NNE 2.0 mph 3.5 mph 49 % 0.00 in
15:25 61.6 °F 41.7 °F 29.93 in ENE 0.8 mph 3.5 mph 48 % 0.00 in
15:30 61.3 °F 42.0 °F 29.93 in ENE 1.4 mph 4.6 mph 49 % 0.00 in
15:35 61.0 °F 43.2 °F 29.93 in ENE 1.9 mph 4.6 mph 52 % 0.00 in
15:40 60.6 °F 42.4 °F 29.93 in ENE 2.7 mph 5.0 mph 51 % 0.00 in
15:45 60.4 °F 43.2 °F 29.94 in NNE 2.3 mph 5.8 mph 53 % 0.00 in
15:50 60.2 °F 44.4 °F 29.93 in ENE 1.3 mph 2.3 mph 56 % 0.00 in
15:55 60.0 °F 42.3 °F 29.93 in SSE 5.2 mph 8.1 mph 52 % 0.00 in
16:00 59.7 °F 42.0 °F 29.93 in SE 3.5 mph 6.9 mph 52 % 0.00 in
16:05 59.7 °F 42.5 °F 29.93 in SE 1.9 mph 3.0 mph 53 % 0.00 in
16:10 59.8 °F 43.1 °F 29.94 in Calm   1.2 mph 54 % 0.00 in
16:15 59.9 °F 42.7 °F 29.93 in Calm   1.2 mph 53 % 0.00 in
16:20 60.0 °F 42.3 °F 29.92 in SSE 2.8 mph 4.6 mph 52 % 0.00 in
16:25 60.0 °F 42.8 °F 29.93 in SE 1.4 mph 3.5 mph 53 % 0.00 in
16:30 60.0 °F 42.3 °F 29.93 in SE 3.6 mph 4.6 mph 52 % 0.00 in
16:35 60.0 °F 42.8 °F 29.93 in SSE 0.1 mph 1.2 mph 53 % 0.00 in
16:40 60.1 °F 43.4 °F 29.93 in SSE 2.8 mph 5.8 mph 54 % 0.00 in
16:45 60.2 °F 44.0 °F 29.92 in SE 0.9 mph 3.0 mph 55 % 0.00 in
16:50 60.1 °F 43.9 °F 29.92 in Calm     55 % 0.00 in
16:55 60.2 °F 43.5 °F 29.93 in Calm     54 % 0.00 in
17:01 60.2 °F 43.5 °F 29.92 in Calm   3.5 mph 54 % 0.00 in
17:06 60.2 °F 43.5 °F 29.93 in Calm   7.0 mph 54 % 0.00 in
17:11 60.3 °F 43.1 °F 29.93 in Calm   2.0 mph 53 % 0.00 in
17:16 60.3 °F 42.6 °F 29.93 in SSE 2.0 mph 5.0 mph 52 % 0.00 in
17:21 60.3 °F 43.1 °F 29.93 in SE 1.0 mph 5.0 mph 53 % 0.00 in
17:26 60.3 °F 43.6 °F 29.93 in SE 0.8 mph 1.2 mph 54 % 0.00 in
17:31 60.1 °F 43.9 °F 29.93 in SE 0.6 mph 1.2 mph 55 % 0.00 in
17:36 60.0 °F 42.8 °F 29.94 in SE 0.4 mph 2.3 mph 53 % 0.00 in
17:41 60.0 °F 43.8 °F 29.94 in SE 2.0 mph 5.0 mph 55 % 0.00 in
17:46 59.9 °F 42.7 °F 29.94 in SE 3.0 mph 9.0 mph 53 % 0.00 in
17:51 59.7 °F 42.5 °F 29.94 in SE 5.0 mph 8.0 mph 53 % 0.00 in
17:56 59.3 °F 42.2 °F 29.93 in SE 1.0 mph 6.0 mph 53 % 0.00 in
18:01 59.2 °F 42.6 °F 29.93 in SSE 3.1 mph 5.8 mph 54 % 0.00 in
18:06 59.0 °F 43.3 °F 29.93 in SE 2.7 mph 6.9 mph 56 % 0.00 in
18:11 58.8 °F 42.7 °F 29.94 in SE 2.9 mph 4.6 mph 55 % 0.00 in
18:16 58.6 °F 42.5 °F 29.94 in SSE 1.5 mph 6.9 mph 55 % 0.00 in
18:21 58.5 °F 42.8 °F 29.94 in SSE 2.3 mph 5.0 mph 56 % 0.00 in
18:26 58.3 °F 42.2 °F 29.94 in SE 2.6 mph 6.9 mph 55 % 0.00 in
18:31 58.1 °F 42.9 °F 29.95 in SE 0.8 mph 2.3 mph 57 % 0.00 in
18:36 57.8 °F 42.2 °F 29.95 in SE 2.2 mph 7.0 mph 56 % 0.00 in
18:41 57.7 °F 42.6 °F 29.95 in SE 1.2 mph 3.5 mph 57 % 0.00 in
18:46 57.5 °F 42.8 °F 29.95 in SE 1.4 mph 5.0 mph 58 % 0.00 in
18:51 57.3 °F 42.2 °F 29.95 in SSE 1.1 mph 3.5 mph 57 % 0.00 in
18:56 57.1 °F 42.9 °F 29.94 in SE 2.0 mph 5.0 mph 59 % 0.00 in
19:01 56.9 °F 42.3 °F 29.95 in SSE 2.8 mph 4.6 mph 58 % 0.00 in
19:06 56.7 °F 42.5 °F 29.95 in SE 0.3 mph 2.3 mph 59 % 0.00 in
19:12 56.6 °F 42.4 °F 29.95 in SE 2.5 mph 5.8 mph 59 % 0.00 in
19:17 56.4 °F 42.7 °F 29.95 in SE 1.6 mph 2.0 mph 60 % 0.00 in
19:22 56.3 °F 42.6 °F 29.95 in Calm   4.6 mph 60 % 0.00 in
19:27 56.0 °F 42.3 °F 29.96 in SE 2.0 mph 3.5 mph 60 % 0.00 in
19:32 55.8 °F 42.5 °F 29.96 in SSE 2.5 mph 4.0 mph 61 % 0.00 in
19:37 55.7 °F 42.9 °F 29.96 in SSE 1.7 mph 2.3 mph 62 % 0.00 in
19:42 55.6 °F 42.8 °F 29.96 in SSE 0.8 mph 2.3 mph 62 % 0.00 in
19:47 55.4 °F 43.0 °F 29.96 in SE 2.0 mph 3.5 mph 63 % 0.00 in
19:52 55.1 °F 42.3 °F 29.96 in SSE 1.3 mph 2.3 mph 62 % 0.00 in
19:57 54.8 °F 42.4 °F 29.96 in SE 0.8 mph 3.5 mph 63 % 0.00 in
20:02 54.6 °F 42.3 °F 29.96 in SSE 1.3 mph 3.5 mph 63 % 0.00 in
20:07 54.4 °F 42.1 °F 29.96 in SE 1.3 mph 3.5 mph 63 % 0.00 in
20:13 54.2 °F 42.3 °F 29.96 in SSE 1.3 mph 3.0 mph 64 % 0.00 in
20:18 54.0 °F 42.1 °F 29.96 in SSE 0.2 mph 2.3 mph 64 % 0.00 in
20:23 53.8 °F 41.9 °F 29.96 in Calm     64 % 0.00 in
20:28 53.5 °F 42.0 °F 29.96 in SSE 1.0 mph 3.5 mph 65 % 0.00 in
20:33 53.2 °F 41.7 °F 29.96 in SSE 2.2 mph 3.5 mph 65 % 0.00 in
20:38 53.0 °F 41.9 °F 29.97 in Calm     66 % 0.00 in
20:43 53.0 °F 41.9 °F 29.96 in Calm     66 % 0.00 in
20:48 52.8 °F 42.1 °F 29.96 in SSE 0.1 mph 1.2 mph 67 % 0.00 in
20:53 52.6 °F 41.9 °F 29.96 in SSE 0.2 mph 1.2 mph 67 % 0.00 in
20:58 52.4 °F 42.1 °F 29.96 in SSE 1.6 mph 3.0 mph 68 % 0.00 in
21:03 52.2 °F 42.0 °F 29.96 in Calm     68 % 0.00 in
21:08 52.0 °F 42.1 °F 29.96 in Calm   1.2 mph 69 % 0.00 in
21:13 51.9 °F 42.0 °F 29.97 in Calm     69 % 0.00 in
21:18 51.8 °F 41.9 °F 29.97 in Calm     69 % 0.00 in
21:23 51.7 °F 41.9 °F 29.97 in Calm   1.2 mph 69 % 0.00 in
21:28 51.5 °F 42.4 °F 29.97 in SSE 0.5 mph 2.3 mph 71 % 0.00 in
21:33 51.3 °F 42.2 °F 29.97 in Calm   1.2 mph 71 % 0.00 in
21:38 51.1 °F 42.4 °F 29.97 in SSE 1.2 mph 1.2 mph 72 % 0.00 in
21:44 50.9 °F 42.2 °F 29.97 in Calm   2.3 mph 72 % 0.00 in
21:49 50.9 °F 42.2 °F 29.97 in SSE 0.9 mph 3.5 mph 72 % 0.00 in
21:54 50.8 °F 42.1 °F 29.97 in Calm     72 % 0.00 in
21:59 50.8 °F 42.1 °F 29.97 in Calm     72 % 0.00 in
22:04 50.7 °F 42.4 °F 29.98 in Calm     73 % 0.00 in
22:09 50.6 °F 42.3 °F 29.98 in SSE 0.2 mph 1.2 mph 73 % 0.00 in
22:14 50.5 °F 42.2 °F 29.98 in SSE 0.1 mph 2.3 mph 73 % 0.00 in
22:19 50.4 °F 42.4 °F 29.98 in Calm   3.5 mph 74 % 0.00 in
22:24 50.4 °F 42.4 °F 29.98 in SE 0.1 mph 1.2 mph 74 % 0.00 in
22:29 50.3 °F 42.3 °F 29.98 in Calm     74 % 0.00 in
22:34 50.2 °F 42.2 °F 29.99 in Calm     74 % 0.00 in
22:39 50.1 °F 42.1 °F 29.99 in Calm   1.2 mph 74 % 0.00 in
22:45 50.0 °F 42.4 °F 30.00 in Calm     75 % 0.00 in
22:50 49.8 °F 42.2 °F 29.99 in Calm     75 % 0.00 in
22:55 49.7 °F 42.1 °F 29.99 in Calm     75 % 0.00 in
23:00 49.5 °F 42.2 °F 29.99 in Calm     76 % 0.00 in
23:05 49.3 °F 42.4 °F 29.99 in Calm     77 % 0.00 in
23:10 49.1 °F 42.5 °F 29.99 in Calm     78 % 0.00 in
23:15 48.9 °F 42.3 °F 29.99 in Calm     78 % 0.00 in
23:20 48.8 °F 42.2 °F 30.00 in Calm     78 % 0.00 in
23:25 48.6 °F 42.0 °F 29.99 in Calm     78 % 0.00 in
23:30 48.5 °F 42.0 °F 29.99 in Calm     78 % 0.00 in
23:35 48.4 °F 41.9 °F 29.99 in Calm     78 % 0.00 in
23:40 48.2 °F 42.0 °F 30.00 in Calm     79 % 0.00 in
23:45 48.1 °F 41.9 °F 30.00 in Calm     79 % 0.00 in
23:55 47.8 °F 41.6 °F 30.00 in Calm     79 % 0.00 in
Crab Meadow Weather
Compliments of Weather Underground - 3 mb

Script developed by  Jim McMurry - jmcmurry@mwt.net Adapted for the template by  Wim van der Kuil - Leuven-Template.eu

Rain: The total amount of precipitation the earth receives each year as snow, hail, and rain is equivalent to 10 million gallons of water for every person in the United States.